Temp
61 61 61 60 60 60 60 60 60 60 60 60 60 60 60 60 61 61 61 61 60 60 60 62 62 62 59 65 77 83 80 79 82 83 83 81 76 74 70 75 79 75 81 85 86 84 84
61 61 60 60 60 60 60 60 60 60 60 59 59 59 59 60 60 60 60 60 60 60 60 61 62 61 62 68 86 83 82 81 83 82 81 82 79 81 77 76 73 81 83 83 80 82 84
60 60 60 61 60 60 60 60 60 59 59 59 59 59 59 59 60 60 60 60 60 59 60 61 61 65 67 76 87 82 81 79 83 82 81 84 85 79 77 75 81 82 74 79 78 79 79
60 60 60 60 59 59 59 59 59 59 59 59 59 59 59 59 59 59 59 59 59 60 60 61 61 61 67 89 83 87 80 80 84 83 83 86 86 80 75 80 79 74 68 63 78 79 81
60 59 60 59 59 59 59 59 59 59 58 58 58 58 58 58 58 58 57 58 60 60 61 62 58 60 70 86 84 85 84 84 83 84 83 94 83 74 75 67 61 64 59 65 72 80 79
60 59 59 59 59 59 58 58 58 58 58 58 58 57 57 57 57 57 57 59 61 59 61 68 71 65 75 81 87 87 87 89 85 83 81 78 72 66 63 60 53 60 60 65 66 75 76
59 59 59 59 59 58 58 58 58 58 58 57 57 57 57 57 57 57 53 57 64 65 62 66 69 73 82 90 93 86 89 86 83 77 65 71 63 58 63 66 70 70 67 67 71 77 71
59 59 58 58 58 58 57 57 57 57 57 57 57 57 57 57 56 57 51 64 68 72 62 75 77 79 84 87 81 85 90 79 76 67 68 65 60 70 74 74 73 71 67 65 72 77 71
59 58 58 58 57 57 57 57 57 57 57 57 57 56 56 56 55 58 64 69 77 70 59 69 77 77 79 82 79 81 84 79 73 69 68 62 70 79 75 72 70 67 64 67 68 73 70
58 58 57 57 57 57 57 57 57 57 57 56 56 56 55 53 59 59 66 74 74 73 51 63 68 78 81 83 76 90 89 81 74 69 70 67 77 76 74 72 71 59 75 74 73 65 57
58 57 57 57 57 57 56 56 57 56 56 56 56 56 55 54 49 59 70 72 71 68 45 76 74 87 81 77 79 81 90 79 71 72 69 66 72 70 70 73 76 69 76 73 72 61 56
58 57 57 57 57 57 56 56 56 56 56 56 55 55 55 55 49 59 66 67 68 53 46 70 79 75 73 75 80 82 80 81 81 73 73 71 81 76 75 81 79 79 71 65 60 55 50
57 57 57 57 56 56 56 56 56 56 56 55 54 54 52 57 56 62 63 62 50 43 67 66 66 70 69 70 74 76 72 69 64 56 56 67 72 77 81 73 75 72 57 47 47 47 48
57 57 57 56 56 56 56 56 56 55 55 54 54 53 51 55 54 60 60 54 41 59 59 71 71 70 65 70 71 73 68 63 68 64 57 56 55 72 79 73 68 64 59 49 43 44 49
57 57 56 56 56 56 56 56 55 55 54 54 52 50 51 55 58 59 55 43 48 56 69 68 68 61 63 71 71 69 65 68 72 68 59 55 59 77 79 79 76 65 58 64 53 48 48
56 56 56 56 55 55 55 55 55 55 54 53 44 47 53 66 62 58 50 46 55 66 69 67 57 63 58 64 63 62 64 71 73 77 70 63 56 74 79 79 75 72 71 57 50 44 42
56 56 56 56 55 55 55 55 55 54 53 53 46 50 62 67 63 54 45 48 61 70 71 64 59 59 60 60 60 57 63 73 78 77 75 65 60 68 70 65 64 65 60 57 56 51 46
56 56 56 56 55 55 55 55 54 53 52 48 42 47 65 69 51 46 48 59 61 66 69 67 66 63 63 62 58 60 63 68 79 82 67 69 58 55 63 72 77 71 66 59 51 50 49
56 56 56 55 55 55 55 55 54 53 52 45 38 46 64 63 45 44 51 61 65 65 65 65 64 66 67 59 55 61 67 77 79 74 68 67 55 50 58 63 68 65 67 61 55 51 50
55 56 55 55 55 55 55 55 54 53 53 43 41 44 52 56 53 49 48 54 57 69 67 69 66 65 61 57 57 60 64 75 79 78 70 68 54 57 54 58 62 64 70 67 58 50 52
55 55 55 55 55 55 55 55 54 53 53 45 44 45 48 42 48 49 48 55 56 57 66 65 63 64 61 50 55 57 63 67 74 72 71 65 56 57 61 66 68 67 68 68 59 61 58
55 55 55 55 55 55 55 55 54 53 52 49 42 41 45 43 48 50 48 50 56 61 59 60 57 66 65 55 59 57 59 55 62 67 62 61 57 55 57 67 69 66 70 69 74 74 64
54 54 54 55 55 55 55 55 54 52 50 41 46 46 43 44 46 46 48 53 57 58 61 64 64 62 61 64 66 65 64 62 62 58 61 58 56 52 49 60 63 56 65 69 69 71 69
54 54 54 54 54 55 55 55 55 53 50 40 42 42 39 39 44 47 54 57 57 57 53 64 64 58 67 70 69 62 58 59 65 61 60 58 54 51 49 52 43 60 68 71 69 68 68
53 53 54 54 54 54 55 55 55 54 52 40 42 42 38 35 44 49 52 53 54 56 56 60 64 62 64 63 56 53 52 57 59 63 60 61 55 51 49 46 55 64 68 67 63 63 68
53 53 53 54 54 54 54 55 55 54 52 42 41 45 41 36 40 50 49 51 46 46 50 57 64 63 60 54 52 43 46 51 52 56 57 59 57 54 48 45 45 58 70 76 70 55 69
52 52 53 53 54 54 54 54 55 54 53 44 41 45 41 35 42 46 45 45 50 47 45 50 55 54 57 50 47 45 47 56 50 48 48 50 50 50 48 47 54 63 68 73 56 56 65
52 52 52 53 53 53 54 54 54 54 54 46 41 44 42 35 39 48 54 48 48 47 43 48 49 49 48 45 47 47 48 51 49 50 46 48 46 46 47 45 46 62 66 59 58 61 64
52 52 52 53 53 53 53 54 54 54 53 51 37 47 47 38 39 47 51 54 53 54 48 48 47 47 50 44 46 46 47 47 45 44 52 47 49 47 50 48 57 59 59 61 64 60 60
MSLP
1021.11 1020.85 1020.64 1020.46 1020.19 1019.87 1019.44 1019.08 1018.84 1018.56 1018.20 1017.68 1017.07 1016.68 1016.18 1015.58 1015.24 1014.77 1014.31 1013.94 1013.52 1013.25 1012.98 1012.58 1012.34 1012.09 1011.83 1010.59 1007.60 1006.28 1006.54 1006.98 1007.18 1007.43 1007.43 1007.60 1007.56 1007.35 1007.20 1006.68 1006.42 1006.19 1005.35 1004.81 1004.16 1004.02 1004.19
1021.28 1020.99 1020.79 1020.64 1020.34 1019.99 1019.62 1019.27 1018.93 1018.58 1018.20 1017.71 1017.12 1016.80 1016.26 1015.59 1015.23 1014.68 1014.23 1013.82 1013.32 1013.04 1012.82 1012.51 1012.24 1012.21 1011.52 1009.03 1005.85 1006.00 1006.49 1007.09 1007.13 1007.25 1007.26 1007.32 1007.09 1006.93 1007.03 1006.86 1006.88 1005.97 1005.46 1004.74 1004.25 1003.86 1003.76
1021.55 1021.20 1021.03 1020.71 1020.45 1020.10 1019.79 1019.42 1019.06 1018.68 1018.23 1017.66 1017.06 1016.70 1016.11 1015.53 1015.10 1014.51 1014.09 1013.55 1013.08 1012.85 1012.66 1012.48 1012.26 1012.03 1010.75 1007.09 1005.60 1006.02 1006.41 1006.69 1006.66 1006.84 1006.90 1006.58 1006.54 1006.80 1006.93 1006.85 1006.37 1005.97 1005.61 1004.49 1004.04 1003.58 1003.55
1021.86 1021.54 1021.17 1020.86 1020.61 1020.30 1020.01 1019.57 1019.11 1018.73 1018.25 1017.69 1017.04 1016.61 1015.99 1015.42 1014.83 1014.24 1013.83 1013.09 1012.58 1012.45 1012.42 1012.35 1012.27 1011.80 1009.08 1005.61 1005.63 1006.03 1006.23 1006.36 1006.38 1006.56 1006.52 1006.18 1006.13 1006.47 1006.80 1006.90 1006.55 1006.32 1006.14 1005.64 1003.64 1003.23 1003.55
1021.96 1021.71 1021.41 1021.09 1020.86 1020.50 1020.16 1019.71 1019.22 1018.79 1018.25 1017.70 1016.97 1016.56 1015.94 1015.21 1014.43 1013.97 1013.33 1012.55 1011.87 1011.98 1012.17 1012.20 1012.15 1011.32 1008.02 1005.92 1005.92 1005.57 1005.67 1006.00 1006.19 1006.36 1006.43 1006.05 1005.95 1006.61 1006.96 1007.54 1007.75 1007.38 1006.92 1005.89 1004.24 1003.48 1003.51
1022.23 1022.01 1021.75 1021.42 1021.06 1020.69 1020.33 1019.86 1019.32 1018.89 1018.33 1017.51 1016.96 1016.50 1015.73 1014.94 1014.20 1013.72 1012.94 1012.17 1011.85 1011.91 1012.10 1011.89 1011.43 1010.61 1007.40 1005.41 1004.80 1005.08 1005.31 1005.51 1006.02 1006.23 1006.43 1006.22 1006.75 1007.32 1007.91 1008.29 1008.20 1007.56 1007.21 1006.30 1005.17 1003.67 1003.88
1022.56 1022.31 1021.96 1021.68 1021.44 1020.98 1020.46 1019.96 1019.53 1019.06 1018.16 1017.40 1017.29 1016.50 1015.68 1014.70 1014.11 1013.77 1012.79 1012.18 1012.27 1011.56 1011.10 1010.04 1009.38 1008.14 1006.16 1004.63 1004.19 1004.71 1004.97 1005.43 1005.78 1006.21 1006.94 1006.93 1007.71 1007.58 1007.69 1007.66 1007.08 1006.98 1006.90 1006.35 1004.77 1003.82 1004.30
1022.88 1022.57 1022.29 1021.93 1021.47 1020.98 1020.57 1020.08 1019.41 1018.42 1017.89 1018.02 1017.22 1016.31 1015.52 1014.59 1013.73 1013.43 1013.32 1012.51 1011.01 1010.49 1009.76 1008.32 1007.47 1006.94 1005.67 1005.22 1005.11 1004.46 1004.71 1005.67 1006.01 1006.71 1007.13 1007.66 1007.38 1006.60 1006.77 1006.83 1006.84 1006.41 1006.10 1005.72 1004.60 1003.92 1004.65
1023.12 1022.89 1022.54 1022.19 1021.77 1021.19 1020.54 1019.87 1019.27 1018.91 1018.78 1018.01 1017.10 1016.40 1015.52 1014.46 1013.33 1012.89 1012.73 1011.45 1010.13 1009.71 1009.83 1006.98 1005.68 1004.98 1004.39 1004.68 1004.71 1004.33 1004.64 1005.30 1005.93 1006.71 1007.15 1007.42 1005.95 1005.91 1006.23 1005.89 1005.95 1005.58 1005.53 1005.06 1004.81 1004.16 1004.65
1023.28 1022.94 1022.57 1022.18 1021.75 1021.36 1020.87 1020.34 1019.86 1019.36 1018.61 1017.79 1017.18 1016.47 1015.71 1014.58 1013.37 1013.48 1011.93 1010.69 1010.10 1009.71 1009.96 1006.50 1004.64 1002.98 1003.18 1003.59 1003.66 1003.37 1003.86 1004.87 1005.81 1006.18 1006.82 1006.72 1005.53 1005.41 1005.22 1005.32 1004.99 1005.12 1004.56 1004.77 1004.96 1005.12 1005.59
1023.47 1023.05 1022.59 1022.16 1021.73 1021.20 1020.59 1020.03 1019.46 1018.84 1018.23 1017.61 1017.09 1016.58 1016.01 1015.71 1015.07 1013.69 1011.85 1010.80 1010.16 1010.12 1008.96 1004.46 1002.99 1001.45 1001.78 1002.80 1002.79 1002.90 1003.14 1004.34 1005.24 1005.74 1006.35 1005.65 1004.89 1004.74 1004.60 1004.18 1003.96 1004.19 1004.13 1004.73 1005.07 1005.87 1006.42
1023.63 1023.23 1022.76 1022.29 1021.81 1021.25 1020.66 1019.96 1019.15 1018.39 1017.71 1017.18 1016.57 1016.14 1015.97 1015.36 1015.02 1012.66 1011.77 1010.96 1010.55 1010.80 1007.66 1004.00 1002.29 1002.04 1002.47 1002.80 1002.56 1002.86 1003.55 1004.15 1004.71 1005.62 1005.68 1005.43 1004.55 1004.33 1003.56 1003.15 1003.23 1003.37 1004.23 1005.30 1006.21 1007.08 1007.61
1023.89 1023.47 1023.03 1022.52 1022.01 1021.45 1020.82 1020.14 1019.42 1018.67 1017.83 1016.84 1015.94 1015.29 1015.68 1015.11 1013.35 1012.03 1011.79 1011.60 1011.83 1010.21 1006.73 1004.48 1003.28 1002.61 1002.62 1002.91 1002.96 1003.25 1004.16 1004.78 1005.26 1005.98 1006.21 1005.45 1004.52 1003.64 1003.33 1003.20 1002.80 1003.42 1005.44 1006.78 1008.07 1008.51 1008.67
1024.01 1023.57 1023.16 1022.71 1022.18 1021.62 1020.94 1020.25 1019.46 1018.56 1017.64 1016.58 1015.44 1014.44 1013.76 1013.47 1012.53 1012.48 1012.46 1012.90 1011.94 1008.96 1006.81 1005.04 1004.30 1003.36 1003.45 1003.13 1003.03 1003.48 1004.22 1005.01 1005.21 1005.47 1006.21 1005.95 1004.63 1003.03 1002.33 1002.41 1002.71 1003.74 1005.40 1007.13 1008.48 1009.45 1009.15
1024.24 1023.75 1023.25 1022.75 1022.23 1021.67 1020.98 1020.24 1019.41 1018.43 1017.38 1016.19 1014.81 1013.76 1013.40 1011.58 1012.04 1012.77 1013.08 1013.03 1010.81 1008.80 1006.98 1005.95 1004.79 1004.24 1003.79 1003.37 1003.36 1003.74 1004.06 1004.27 1004.23 1004.75 1005.70 1005.54 1004.39 1002.63 1002.26 1002.33 1002.69 1003.43 1004.86 1005.54 1007.65 1009.15 1009.39
1024.41 1023.96 1023.44 1022.93 1022.38 1021.75 1021.07 1020.30 1019.36 1018.29 1017.03 1015.89 1015.31 1014.26 1012.27 1010.31 1011.37 1012.43 1013.03 1011.93 1010.14 1008.22 1007.32 1006.53 1005.91 1005.19 1005.22 1004.53 1004.09 1004.04 1003.66 1003.19 1003.31 1003.55 1003.92 1004.60 1004.68 1002.71 1002.03 1002.06 1001.85 1002.29 1003.64 1005.66 1007.85 1009.23 1009.68
1024.55 1024.14 1023.64 1023.18 1022.61 1021.97 1021.31 1020.61 1019.67 1018.51 1017.04 1015.46 1015.16 1014.06 1010.51 1010.07 1011.11 1012.48 1012.76 1011.44 1009.45 1008.04 1007.70 1007.30 1006.60 1006.19 1005.49 1005.33 1005.03 1004.49 1003.78 1002.85 1002.10 1002.37 1003.20 1004.06 1004.65 1002.99 1002.88 1002.44 1002.29 1002.52 1003.56 1005.19 1006.89 1008.27 1009.31
1024.62 1024.17 1023.74 1023.21 1022.63 1022.05 1021.44 1020.79 1019.92 1018.88 1017.48 1016.34 1016.02 1014.12 1010.77 1010.15 1011.86 1012.60 1012.31 1010.79 1009.51 1008.22 1007.76 1007.58 1006.52 1006.06 1005.27 1005.05 1004.85 1004.49 1003.44 1002.91 1001.73 1001.09 1002.74 1002.92 1004.12 1004.15 1003.17 1002.14 1001.95 1002.39 1003.08 1004.21 1006.55 1007.98 1008.63
1024.64 1024.16 1023.75 1023.14 1022.52 1021.97 1021.36 1020.67 1019.82 1019.16 1018.69 1018.49 1017.27 1014.63 1011.00 1010.72 1011.92 1012.65 1011.79 1010.62 1009.56 1008.59 1007.89 1007.46 1006.70 1005.90 1005.41 1005.19 1005.15 1004.49 1003.34 1002.17 1002.28 1001.90 1001.71 1002.26 1003.90 1004.35 1003.46 1002.61 1001.84 1002.03 1002.47 1003.34 1004.85 1006.29 1007.62
1024.66 1024.21 1023.77 1023.21 1022.70 1022.06 1021.36 1020.51 1019.59 1018.70 1018.03 1018.18 1017.47 1015.55 1013.19 1012.37 1012.11 1012.30 1012.05 1010.97 1009.75 1008.26 1007.56 1007.03 1006.52 1006.04 1005.60 1005.25 1005.26 1004.76 1003.87 1002.73 1002.29 1001.83 1001.42 1001.65 1003.01 1003.58 1003.62 1002.87 1002.63 1002.30 1002.08 1002.53 1003.85 1005.73 1006.28
1024.70 1024.24 1023.76 1023.27 1022.74 1022.10 1021.46 1020.67 1019.71 1018.50 1017.32 1017.38 1017.36 1016.76 1015.84 1014.92 1013.73 1013.29 1012.36 1011.24 1009.94 1008.87 1007.63 1006.86 1006.27 1005.86 1005.75 1005.68 1005.52 1005.23 1004.15 1003.60 1002.46 1002.08 1001.81 1002.45 1003.44 1003.25 1003.22 1002.85 1002.44 1002.27 1002.30 1002.60 1003.55 1003.87 1004.78
1024.78 1024.25 1023.85 1023.40 1022.73 1022.16 1021.51 1020.85 1020.05 1019.04 1017.43 1017.44 1018.19 1018.04 1017.11 1016.06 1014.74 1013.75 1012.42 1011.36 1010.21 1009.06 1008.19 1007.14 1007.13 1006.03 1005.33 1005.52 1005.46 1005.28 1004.85 1004.35 1003.51 1002.72 1002.74 1003.03 1003.71 1003.60 1003.44 1002.90 1002.61 1002.33 1001.97 1002.15 1002.03 1002.40 1003.64
1024.86 1024.42 1024.01 1023.55 1023.00 1022.46 1021.86 1021.40 1020.63 1019.93 1018.89 1019.28 1019.10 1018.69 1018.36 1016.95 1015.64 1014.60 1013.15 1012.36 1011.04 1010.09 1008.68 1008.01 1007.26 1006.39 1005.45 1004.79 1004.34 1004.39 1004.31 1004.29 1003.81 1003.59 1003.70 1004.09 1004.32 1004.80 1004.70 1003.86 1003.07 1002.75 1002.12 1001.98 1002.24 1002.48 1003.19
1024.86 1024.48 1024.08 1023.71 1023.22 1022.71 1022.21 1021.64 1021.09 1020.80 1020.65 1020.87 1020.08 1019.69 1019.20 1018.02 1016.62 1015.34 1013.82 1012.64 1011.63 1010.98 1010.23 1008.49 1007.39 1006.53 1005.61 1004.69 1003.91 1003.86 1003.92 1003.89 1003.49 1003.66 1003.84 1004.43 1005.15 1005.47 1005.73 1004.96 1004.09 1002.73 1001.77 1001.73 1002.08 1002.41 1002.53
1024.82 1024.43 1024.00 1023.59 1023.13 1022.76 1022.25 1021.74 1021.42 1021.13 1020.90 1021.11 1020.34 1020.05 1019.81 1018.95 1017.18 1015.53 1014.27 1013.25 1012.02 1011.16 1010.38 1009.34 1008.41 1007.70 1006.81 1005.70 1005.49 1005.02 1004.93 1004.51 1003.87 1003.88 1004.21 1004.66 1005.50 1006.28 1006.56 1006.18 1004.76 1003.21 1002.25 1002.16 1002.34 1003.14 1003.92
1024.77 1024.37 1023.98 1023.55 1023.10 1022.71 1022.41 1021.90 1021.56 1021.29 1021.14 1021.09 1020.42 1019.69 1019.91 1019.76 1017.44 1016.24 1014.86 1013.91 1013.23 1012.43 1011.27 1010.27 1008.87 1007.75 1007.12 1007.10 1007.17 1006.95 1006.51 1005.61 1004.94 1004.48 1004.55 1005.13 1005.82 1007.01 1007.41 1006.90 1005.80 1004.14 1003.03 1002.35 1002.65 1003.89 1004.40
1024.66 1024.33 1023.93 1023.49 1023.15 1022.82 1022.38 1022.00 1021.61 1021.38 1021.16 1021.17 1020.73 1019.91 1020.06 1019.93 1017.47 1016.45 1015.28 1014.47 1013.85 1013.46 1012.85 1011.87 1011.04 1009.67 1008.88 1009.00 1009.10 1008.61 1007.63 1006.38 1006.30 1005.86 1006.00 1006.46 1006.93 1007.56 1007.77 1007.26 1006.13 1005.32 1004.16 1002.97 1003.99 1005.29 1005.00
1024.55 1024.24 1023.89 1023.53 1023.20 1022.84 1022.46 1022.16 1021.88 1021.57 1021.26 1021.24 1020.86 1020.23 1020.38 1020.17 1017.85 1016.47 1015.60 1014.88 1014.41 1014.02 1013.82 1012.75 1012.02 1011.81 1011.30 1011.02 1010.74 1009.76 1008.80 1007.62 1007.26 1007.31 1007.36 1007.82 1008.23 1008.31 1008.26 1008.09 1007.57 1006.43 1004.96 1005.46 1006.13 1005.87 1006.03
1024.40 1024.12 1023.79 1023.43 1023.15 1022.85 1022.59 1022.24 1021.95 1021.70 1021.49 1021.24 1021.34 1020.43 1020.38 1020.50 1018.23 1016.56 1015.56 1014.81 1014.30 1013.85 1013.97 1013.46 1013.42 1013.26 1013.22 1013.18 1012.31 1011.32 1010.05 1009.31 1008.99 1008.98 1008.65 1008.99 1008.73 1008.72 1008.72 1008.91 1008.89 1008.29 1007.50 1007.07 1006.75 1006.89 1007.69
Wind_Speed
15 15 15 16 16 16 16 17 16 16 16 17 17 17 17 17 17 17 16 16 15 14 11 11 8 8 3 2 7 6 10 9 6 6 5 3 3 2 3 4 6 4 7 8 13 3 8
15 15 16 16 16 17 17 16 17 17 17 17 18 18 18 18 18 17 17 16 15 13 10 9 7 6 2 3 3 9 9 7 5 5 4 5 6 3 5 4 1 6 13 11 2 6 5
15 15 15 16 16 17 17 17 17 18 18 18 19 19 19 19 19 18 17 18 16 13 9 6 5 4 1 11 5 8 10 7 6 6 4 4 4 3 3 9 2 8 6 9 2 2 4
15 16 15 16 17 17 17 18 18 18 19 19 19 20 20 20 21 20 19 19 19 12 6 2 3 3 8 4 8 6 4 2 4 6 4 8 8 5 4 3 9 6 5 4 8 4 5
16 16 16 17 17 18 18 18 19 19 19 19 20 21 21 21 21 20 20 22 17 4 4 2 1 1 9 1 4 6 5 5 4 5 5 12 4 3 3 3 6 6 3 6 10 4 4
16 17 17 17 18 18 19 19 19 20 20 20 21 21 21 22 21 20 22 14 6 7 3 4 5 3 5 6 4 9 7 5 5 5 3 1 4 1 4 5 5 5 2 6 8 6 5
17 17 18 18 18 18 19 20 20 20 20 21 21 21 22 23 22 18 12 2 5 4 1 7 4 4 7 6 5 6 8 4 2 4 2 3 3 8 9 9 7 5 4 8 7 9 1
16 17 18 19 19 20 20 20 21 23 23 22 22 22 24 25 24 21 1 3 3 6 10 10 17 14 18 8 5 6 8 6 5 5 2 5 8 13 5 8 8 8 7 6 8 7 4
16 17 18 18 19 20 21 22 22 22 21 21 22 22 24 27 28 3 3 5 8 3 2 10 8 8 8 9 9 9 12 6 4 5 5 7 10 3 6 10 7 6 4 6 6 4 1
17 18 19 19 20 19 20 21 21 20 20 21 21 22 22 29 3 6 6 11 10 4 4 10 6 10 6 8 6 9 14 8 4 11 8 8 15 15 13 7 5 5 10 5 6 4 2
17 18 19 20 20 21 21 22 22 22 22 22 22 20 19 11 5 4 6 14 8 6 3 3 5 2 8 11 4 7 11 4 9 7 7 10 4 3 5 10 6 10 6 7 4 3 2
16 18 18 20 21 21 21 22 24 25 25 25 23 21 18 2 2 8 9 11 6 6 8 5 4 6 8 5 5 4 7 3 6 4 7 9 8 4 8 12 9 4 2 6 6 3 5
16 17 18 20 20 21 21 22 23 25 26 27 27 25 9 3 6 3 7 5 6 4 6 3 2 4 6 7 8 5 7 7 7 4 5 7 11 10 8 7 4 6 7 4 6 6 7
17 17 17 19 19 19 20 22 24 26 27 28 29 26 5 7 5 3 4 7 4 6 7 5 7 5 4 5 6 5 8 7 7 3 3 3 10 10 4 11 9 5 9 8 6 3 6
16 16 17 18 18 20 20 22 24 26 28 30 25 3 3 6 9 2 6 3 9 6 4 8 8 0 5 6 5 8 10 14 13 12 10 6 10 3 4 5 9 5 3 8 7 2 3
15 16 16 17 17 19 20 22 25 28 30 30 3 4 5 5 9 5 5 6 5 2 6 5 1 3 6 8 1 5 7 10 13 18 8 9 6 14 19 5 5 12 5 4 4 2 4
16 16 16 16 16 17 18 20 23 26 31 25 2 4 5 10 5 6 4 7 5 4 8 7 4 5 2 1 2 2 6 8 18 15 16 7 6 20 3 4 6 3 1 4 6 7 6
15 15 16 17 17 17 16 19 21 23 28 9 4 2 4 7 5 2 2 3 7 5 7 7 5 6 6 1 2 4 4 1 11 19 12 14 8 8 13 5 6 9 10 7 7 7 3
15 16 17 17 17 17 18 21 22 21 17 5 3 4 5 5 3 2 6 6 6 11 8 6 6 2 5 1 3 3 5 8 8 4 8 8 4 1 11 8 7 3 6 4 5 5 6
16 15 16 17 18 18 20 22 24 25 23 4 2 4 6 4 1 3 3 5 5 7 9 11 10 5 5 3 4 6 6 9 15 9 6 9 4 10 10 8 3 5 7 2 7 5 5
15 15 15 17 19 20 20 22 24 28 29 4 2 2 1 4 5 6 1 4 7 7 5 2 8 6 7 3 5 6 6 8 7 4 6 4 2 4 6 3 1 2 5 7 2 5 7
17 15 15 17 19 20 20 22 23 27 27 4 3 4 6 4 5 6 2 4 4 8 5 9 3 14 7 7 9 8 6 2 7 7 6 4 3 1 4 4 5 3 10 2 14 18 4
14 14 14 16 18 19 20 20 19 22 15 4 4 4 4 5 6 3 2 8 9 11 6 7 11 8 7 10 8 9 7 5 5 4 4 3 3 4 3 4 4 4 4 3 3 2 7
13 14 14 16 16 16 17 18 18 17 12 2 3 1 3 4 2 3 10 8 12 8 4 9 11 2 4 8 3 1 2 3 3 4 2 3 3 3 3 4 3 8 4 2 3 4 5
12 14 14 15 15 15 16 16 17 15 14 2 3 2 2 3 3 6 10 7 8 8 4 4 9 5 14 5 3 4 6 7 1 2 2 3 3 2 4 4 5 7 3 1 2 5 7
13 13 14 15 15 14 15 16 16 14 12 2 3 0 3 1 5 6 4 3 4 5 7 3 8 10 5 4 4 3 4 5 3 1 2 5 6 4 3 3 5 7 6 8 4 1 6
12 12 13 13 15 15 14 14 15 16 14 3 4 3 3 1 5 4 2 3 3 3 3 5 9 10 6 3 3 0 3 3 2 0 1 3 3 6 2 3 6 7 14 5 5 9 3
11 12 13 13 13 13 13 13 13 14 15 7 5 3 3 2 8 4 5 3 4 1 0 6 4 7 6 7 2 3 1 3 1 2 2 3 3 4 3 2 7 18 5 6 5 6 3
11 11 12 12 12 13 12 12 12 11 12 10 3 5 2 3 8 4 11 12 8 9 2 5 4 2 0 3 4 4 4 4 1 1 5 1 4 5 3 4 3 7 2 0 2 7 5
Wind_Direction
25 23 20 16 11 10 8 7 4 359 355 353 352 346 342 342 337 333 332 328 327 333 332 335 326 325 306 338 249 134 114 123 121 151 183 181 254 181 253 292 342 240 278 306 275 272 285
25 25 20 16 12 9 7 5 3 357 354 353 351 343 339 338 332 332 327 320 316 321 323 331 324 325 306 282 120 140 133 138 157 167 195 182 231 206 278 279 124 293 306 294 10 31 26
26 25 21 15 13 11 6 4 2 358 352 351 350 341 338 334 329 329 324 313 309 308 307 317 322 289 272 240 153 148 138 172 181 179 192 234 256 135 4 324 321 276 307 323 259 178 213
27 25 19 18 14 12 7 3 1 356 352 348 348 339 335 330 325 327 319 308 307 294 275 285 328 290 257 292 134 147 182 198 214 228 229 262 270 218 163 289 339 339 35 2 262 190 158
28 25 22 20 15 11 6 3 359 353 351 347 347 336 331 327 326 324 318 311 303 245 194 189 287 276 272 37 189 197 157 189 199 249 264 272 42 205 338 70 358 2 249 259 308 134 172
28 25 23 20 15 10 5 2 358 351 350 348 343 334 331 327 326 326 319 313 80 123 187 200 258 327 268 232 188 171 219 182 183 188 344 2 48 34 24 79 216 201 175 291 267 295 72
28 23 21 15 12 8 4 1 357 350 351 351 337 334 330 328 325 325 341 355 360 359 137 209 197 267 285 263 141 170 198 147 218 89 181 296 75 233 213 206 244 269 214 232 265 260 355
29 23 16 13 8 4 2 359 356 357 355 341 337 336 332 327 323 323 166 25 227 210 302 246 248 248 257 272 304 186 144 156 150 193 210 349 248 239 228 241 238 260 266 244 280 255 144
29 20 15 10 7 2 359 357 356 353 343 340 340 336 333 326 319 330 259 253 306 39 293 287 219 207 211 161 222 206 152 174 156 195 207 192 242 330 215 267 270 266 238 276 268 316 239
22 14 13 10 6 2 358 355 352 346 343 342 338 336 333 327 14 326 291 322 328 82 27 273 226 247 180 147 251 185 180 147 223 205 223 239 255 253 272 242 223 247 253 249 286 35 230
16 13 12 8 5 359 353 350 348 346 343 340 334 334 330 327 296 322 306 326 320 57 351 247 199 179 158 152 156 225 169 122 190 201 134 244 275 262 260 252 217 235 256 255 246 205 66
13 9 10 6 2 357 351 348 346 344 341 336 331 327 334 108 240 244 317 311 48 45 254 314 160 169 106 211 235 93 149 91 181 215 255 247 273 250 248 273 240 249 280 47 35 64 16
10 7 4 4 0 355 349 347 344 341 337 332 326 317 313 289 236 321 325 40 52 163 318 289 264 162 172 186 218 135 151 181 178 165 273 320 282 280 255 273 306 89 59 353 354 7 226
8 5 4 2 360 353 348 346 343 340 336 329 322 312 242 207 246 301 38 57 182 233 262 315 355 318 189 170 234 173 146 187 250 147 109 196 315 233 246 207 190 194 151 155 199 210 260
8 2 1 359 355 353 349 346 343 340 335 330 320 320 242 245 202 84 80 121 208 219 315 356 334 352 263 235 173 189 177 201 208 180 173 177 259 262 282 298 160 239 175 197 139 76 53
6 1 4 360 352 349 348 346 344 341 337 332 313 323 258 153 139 87 82 225 238 274 2 360 311 49 15 338 173 161 199 204 214 203 168 222 278 273 278 299 263 156 168 64 17 183 286
4 358 5 2 356 350 348 347 345 343 339 331 8 347 269 130 87 56 172 234 289 314 11 3 327 284 248 318 299 207 221 265 211 209 188 167 149 269 71 194 221 70 232 66 117 137 166
357 356 354 354 352 348 355 350 348 348 344 22 338 14 308 115 77 181 212 240 328 324 330 289 259 239 230 21 300 317 240 286 307 218 159 201 167 232 243 242 196 189 210 155 127 256 181
354 356 356 356 358 5 358 352 350 351 4 324 340 273 302 80 129 258 279 262 247 277 270 274 322 331 320 142 320 233 297 298 330 296 191 179 212 292 324 348 348 183 190 171 106 79 199
352 0 357 5 2 1 358 354 350 346 345 133 25 12 336 15 27 124 324 278 273 278 285 246 259 283 270 297 181 274 287 302 331 324 331 92 127 168 194 207 181 333 316 242 132 118 208
349 350 354 1 0 1 359 356 354 348 348 110 60 326 34 331 337 332 282 278 282 297 251 9 318 214 234 261 332 272 284 311 311 330 357 71 147 157 161 205 154 278 298 2 326 240 153
354 359 1 359 360 360 359 359 1 357 344 68 57 27 343 290 301 349 311 260 266 301 240 292 295 303 238 192 187 272 295 258 266 333 15 12 275 83 350 26 38 14 325 348 331 307 203
348 351 355 355 357 358 1 360 7 9 9 40 322 341 111 284 324 345 333 349 343 4 308 326 311 279 297 262 202 205 208 224 232 317 329 52 113 70 282 352 28 18 265 224 242 293 195
344 345 347 346 349 355 358 1 9 16 28 183 265 4 53 285 311 337 316 333 336 350 257 309 318 209 287 296 273 33 52 288 73 1 99 27 77 101 200 46 240 239 264 269 133 17 320
349 347 346 346 350 352 355 2 6 13 10 12 285 53 66 276 313 307 335 330 325 334 324 292 341 291 303 350 31 37 345 4 277 246 10 99 97 76 138 175 277 330 316 307 106 342 57
341 343 344 344 342 349 359 355 2 6 4 13 273 170 93 109 235 289 290 344 342 322 323 312 322 318 328 74 43 142 189 228 285 209 59 85 99 126 121 157 207 231 302 286 135 338 110
339 337 336 349 350 347 349 351 355 1 0 0 275 327 88 234 269 22 8 268 309 337 281 318 331 341 12 36 49 127 262 204 230 179 287 348 356 180 194 205 284 335 320 318 120 237 123
327 334 335 337 335 341 344 349 351 352 355 9 275 305 93 281 280 259 298 259 327 72 59 290 19 354 357 32 56 264 182 264 82 36 354 209 167 211 114 129 274 350 6 78 232 353 12
322 324 325 329 334 334 336 337 342 346 348 0 325 333 15 177 254 297 262 247 213 233 104 333 162 185 276 6 359 322 350 17 30 197 348 306 191 179 139 178 243 302 34 263 66 80 33